MUOS-2

Last updated on Mon Sep 07 2026 00:02:58 GMT+0000 (Coordinated Universal Time)

1 39206U 13036A 26249.63717139 -.00000027 00000+0 00000+0 0 9991 2 39206 5.1556 45.5501 0056459 177.0003 164.5529 1.00270594 48003
UTC large
Height (km)
Speed (km/s)
/
Latitude / Longitude
Inclination (degrees)
Orbital Period (minutes)
Azimuth
Elevation
Range (km)
Doppler Factor

Next 0 passes for location: London (51.5072 / 0.1276)

No passes found over London.
MUOS-2